Вернуться в каталог

IRIDIUM 39

АктивенСвязьPO
NORAD 25042·PAYLOAD·🇺🇸 United States

Запущен Nov 9, 1997 с Vandenberg Space Force Base

Loading…

Ближайшие Пролёты (ближайшие 24 часа)

TLE

СвежийSource: Space-Track

Эпоха: Sep 14, 2026, 15:02 UTC

1 25042U 97069D   26257.62690226  .00000441  00000-0  10869-3 0  9995
2 25042  86.3950  16.1556 0016131 221.9073 138.0898 14.49842676514790

Отслеживайте IRIDIUM 39 в реальном времени с AllMySat

Download on the App Store